GW0374 Weather Reports


time (UTC)temp
C
wind
direction
speed
KPH
gust
KPH
rain 1hr
cm
rain 24hr
cm
rain mn
cm
humidity
%
barometer
mb
20260507142503 17 273 6.4 11.3 0.00 0.81 0.81 85 1012.9
20260507142004 17 276 6.4 14.5 0.00 0.81 0.81 85 1012.7
20260507141504 18 283 8.0 14.5 0.00 0.81 0.81 83 1012.7
20260507141003 18 284 8.0 12.9 0.00 0.81 0.81 80 1012.6
20260507140503 18 288 4.8 12.9 0.00 0.81 0.81 80 1012.7
20260507140003 18 294 1.6 8.0 0.00 0.81 0.81 79 1013.0
20260507135503 18 288 0.0 4.8 0.00 0.81 0.81 80 1012.8
20260507135003 18 109 0.0 3.2 0.03 0.81 0.81 82 1012.9
20260507134503 18 128 0.0 6.4 0.15 0.81 0.81 79 1013.0
20260507134003 17 128 1.6 6.4 0.15 0.81 0.81 80 1012.9
20260507133503 17 125 1.6 6.4 0.15 0.81 0.81 77 1013.0
20260507133004 18 127 1.6 6.4 0.15 0.81 0.81 79 1013.0
20260507132503 18 225 0.0 3.2 0.15 0.81 0.81 75 1012.9
20260507132003 17 273 0.0 3.2 0.15 0.81 0.81 74 1012.9
20260507131503 16 0 0.0 0.0 0.15 0.81 0.81 72 1013.0
20260507131004 16 0 0.0 0.0 0.15 0.81 0.81 72 1013.0
20260507130503 16 91 0.0 4.8 0.15 0.81 0.81 74 1013.2
20260507130026 16 82 0.0 4.8 0.18 0.81 0.81 72 1013.2
20260507125503 17 33 0.0 6.4 0.18 0.81 0.81 71 1013.1
20260507125004 17 354 1.6 6.4 0.15 0.79 0.79 68 1013.2
20260507124503 17 258 0.0 4.8 0.05 0.69 0.69 65 1013.1
20260507124004 17 259 0.0 4.8 0.05 0.66 0.66 64 1013.2
20260507123503 17 260 1.6 4.8 0.05 0.66 0.66 64 1013.2
20260507123004 17 258 0.0 4.8 0.05 0.66 0.66 64 1013.3
20260507122503 17 250 0.0 3.2 0.08 0.66 0.66 64 1013.4
20260507122005 17 276 1.6 4.8 0.08 0.66 0.66 64 1013.5
20260507121504 17 272 1.6 4.8 0.10 0.66 0.66 64 1013.5
20260507121003 17 273 1.6 4.8 0.10 0.66 0.66 65 1013.5
20260507120503 17 278 0.0 4.8 0.13 0.66 0.66 69 1013.5
20260507120025 17 276 0.0 4.8 0.10 0.64 0.64 69 1013.4
20260507115503 17 0 0.0 0.0 0.10 0.64 0.64 69 1013.5
20260507115003 17 219 0.0 4.8 0.13 0.64 0.64 69 1013.6
20260507114503 17 224 0.0 4.8 0.13 0.64 0.64 69 1013.6
20260507114003 17 241 0.0 3.2 0.13 0.61 0.61 69 1013.6
20260507113503 17 239 0.0 3.2 0.13 0.61 0.61 69 1013.6
20260507113004 17 225 0.0 3.2 0.13 0.61 0.61 68 1013.7
20260507112504 17 231 0.0 4.8 0.13 0.58 0.58 69 1013.8
20260507112003 17 256 0.0 6.4 0.15 0.58 0.58 68 1013.9
20260507111506 16 257 1.6 6.4 0.15 0.56 0.56 66 1013.9
20260507111004 17 240 0.0 4.8 0.20 0.56 0.56 66 1013.8
20260507110504 17 227 0.0 3.2 0.36 0.53 0.53 66 1013.8
20260507110004 16 251 0.0 3.2 0.48 0.53 0.53 66 1013.8
20260507105503 16 248 0.0 3.2 0.53 0.53 0.53 66 1014.0
20260507105004 16 229 0.0 1.6 0.51 0.51 0.51 65 1014.1
20260507104504 16 224 0.0 1.6 0.51 0.51 0.51 65 1014.0
20260507104004 16 224 0.0 3.2 0.51 0.51 0.51 66 1014.1
20260507103504 16 224 0.0 3.2 0.51 0.51 0.51 66 1014.1
20260507103004 16 0 0.0 0.0 0.48 0.48 0.48 71 1014.1
20260507102503 16 0 0.0 0.0 0.46 0.46 0.46 79 1014.0
20260507095003 18 33 1.6 12.9 0.00 0.00 0.00 80 1013.6
20260507094524 18 18 1.6 12.9 0.00 0.00 0.00 79 1013.7
20260507094024 18 340 0.0 6.4 0.00 0.00 0.00 79 1013.7
20260507093524 18 27 1.6 11.3 0.00 0.00 0.00 80 1013.7
20260507093003 18 35 1.6 11.3 0.00 0.00 0.00 80 1013.7
20260507092503 18 43 1.6 6.4 0.00 0.00 0.00 80 1013.7
20260507092003 18 36 3.2 11.3 0.00 0.00 0.00 80 1013.7
20260507091503 18 40 3.2 11.3 0.00 0.00 0.00 80 1013.8
20260507091024 18 42 3.2 9.7 0.00 0.00 0.00 79 1013.8
20260507090503 18 30 1.6 9.7 0.00 0.00 0.00 79 1013.8
20260507090003 18 26 1.6 6.4 0.00 0.00 0.00 79 1013.8
20260507085503 18 23 1.6 6.4 0.00 0.00 0.00 79 1013.8
20260507085003 18 354 0.0 3.2 0.00 0.00 0.00 79 1013.8
20260507084503 18 13 0.0 3.2 0.00 0.00 0.00 79 1013.8
20260507084003 18 340 0.0 3.2 0.00 0.00 0.00 79 1013.8
20260507083503 18 312 0.0 4.8 0.00 0.00 0.00 79 1013.8
20260507083005 18 305 0.0 4.8 0.00 0.00 0.00 79 1013.8
20260507082524 18 274 0.0 3.2 0.00 0.00 0.00 79 1013.8
20260507082004 17 274 0.0 3.2 0.00 0.00 0.00 79 1013.9
20260507081503 17 269 0.0 1.6 0.00 0.00 0.00 80 1014.0
20260507081024 17 269 0.0 1.6 0.00 0.00 0.00 80 1013.9
20260507080503 17 269 0.0 1.6 0.00 0.00 0.00 82 1014.0
20260507080003 17 265 0.0 3.2 0.00 0.00 0.00 82 1014.0
20260507075503 17 263 0.0 3.2 0.00 0.00 0.00 82 1013.9
20260507075003 17 257 0.0 1.6 0.00 0.00 0.00 80 1013.8
20260507074524 17 0 0.0 0.0 0.00 0.00 0.00 80 1013.9
20260507074003 17 0 0.0 0.0 0.00 0.00 0.00 79 1013.9
20260507073504 17 257 0.0 1.6 0.00 0.00 0.00 79 1013.9
20260507073004 17 257 0.0 1.6 0.00 0.00 0.00 79 1013.8
20260507072504 17 257 0.0 1.6 0.00 0.00 0.00 79 1013.7
20260507072003 17 254 0.0 1.6 0.00 0.00 0.00 79 1013.6
20260506203503 18 128 1.6 6.4 0.00 0.00 0.00 87 1013.9
20260506203004 18 131 1.6 8.0 0.00 0.00 0.00 87 1013.9
20260506202527 18 133 3.2 9.7 0.00 0.00 0.00 87 1013.9
20260506202024 18 130 3.2 9.7 0.00 0.00 0.00 87 1013.8
20260506201525 18 127 3.2 8.0 0.00 0.00 0.00 87 1013.7
20260506201003 18 128 1.6 8.0 0.00 0.00 0.00 87 1013.7
20260506200503 18 76 1.6 8.0 0.00 0.00 0.00 85 1013.5
20260506200004 18 42 1.6 12.9 0.00 0.00 0.00 88 1013.4
20260506195504 18 33 3.2 12.9 0.00 0.00 0.00 88 1013.4
20260506195003 18 28 1.6 9.7 0.00 0.00 0.00 87 1013.2
20260506194503 18 32 3.2 9.7 0.00 0.00 0.00 87 1013.1
20260506194003 18 32 3.2 9.7 0.00 0.00 0.00 87 1013.1
20260506193524 18 33 4.8 9.7 0.00 0.00 0.00 87 1013.1
20260506193003 18 38 4.8 9.7 0.00 0.00 0.00 85 1013.0
20260506192503 18 34 3.2 8.0 0.00 0.00 0.00 85 1013.0
20260506192004 18 28 1.6 8.0 0.00 0.00 0.00 83 1012.9
20260506191524 18 34 1.6 8.0 0.00 0.00 0.00 83 1012.8
20260506191025 18 79 1.6 6.4 0.00 0.00 0.00 82 1012.7
20260506190524 18 82 3.2 8.0 0.00 0.00 0.00 82 1012.6
20260506190024 19 82 3.2 8.0 0.00 0.00 0.00 80 1012.6
20260506185503 19 90 3.2 8.0 0.00 0.00 0.00 80 1012.8
20260506185003 19 89 3.2 12.9 0.00 0.00 0.00 80 1012.7
20260506184503 19 87 3.2 12.9 0.00 0.00 0.00 80 1012.6
20260506184003 19 87 3.2 9.7 0.00 0.00 0.00 80 1012.5
20260506183524 19 79 1.6 6.4 0.00 0.00 0.00 79 1012.7
20260506183024 19 84 1.6 6.4 0.00 0.00 0.00 79 1012.5
20260506182503 19 93 1.6 9.7 0.00 0.00 0.00 79 1012.5
20260506182003 20 88 1.6 9.7 0.00 0.00 0.00 77 1012.5
20260506181504 20 86 1.6 8.0 0.00 0.00 0.00 77 1012.5
20260506181003 20 82 3.2 12.9 0.00 0.00 0.00 77 1012.5
20260506180503 20 82 3.2 12.9 0.00 0.00 0.00 77 1012.4
20260506180003 20 80 3.2 9.7 0.00 0.00 0.00 75 1012.5
20260506175504 20 80 3.2 9.7 0.00 0.00 0.00 75 1012.3
20260506175003 20 86 3.2 9.7 0.00 0.00 0.00 77 1012.4
20260506174524 20 85 3.2 11.3 0.00 0.00 0.00 77 1012.4
20260506174004 20 86 3.2 11.3 0.00 0.00 0.00 77 1012.4
20260506173503 20 90 3.2 8.0 0.00 0.00 0.00 77 1012.5
20260506173003 20 88 4.8 12.9 0.00 0.00 0.00 75 1012.3
20260506172524 20 81 4.8 14.5 0.00 0.00 0.00 75 1012.4
20260506172003 20 77 4.8 14.5 0.00 0.00 0.00 74 1012.3
20260506171503 20 80 4.8 14.5 0.00 0.00 0.00 75 1012.2
20260506171004 20 81 4.8 12.9 0.00 0.00 0.00 75 1012.2
20260506170503 20 88 4.8 14.5 0.00 0.00 0.00 75 1012.1
20260506170024 20 89 6.4 14.5 0.00 0.00 0.00 75 1012.0
20260506165503 20 85 6.4 16.1 0.00 0.00 0.00 75 1012.1
20260506165003 20 89 6.4 16.1 0.00 0.00 0.00 75 1012.1
20260506164504 20 84 6.4 17.7 0.00 0.00 0.00 75 1012.1
20260506164004 20 79 6.4 17.7 0.00 0.00 0.00 75 1012.0
20260506163503 20 84 6.4 17.7 0.00 0.00 0.00 77 1012.0
20260506163003 20 84 8.0 19.3 0.00 0.00 0.00 75 1012.1
20260506162503 21 83 8.0 19.3 0.00 0.00 0.00 75 1012.1
20260506162003 21 82 6.4 19.3 0.00 0.00 0.00 74 1012.1
20260506161524 21 54 6.4 20.9 0.00 0.00 0.00 75 1012.1
20260506161003 21 30 8.0 20.9 0.00 0.00 0.00 77 1012.0
20260506160503 21 49 6.4 17.7 0.00 0.00 0.00 75 1012.0
20260506160003 21 70 4.8 17.7 0.00 0.00 0.00 75 1012.0
20260506155503 21 35 9.7 24.1 0.00 0.00 0.00 77 1011.8
20260506155025 21 34 14.5 24.1 0.00 0.00 0.00 77 1011.8
20260506154503 21 31 12.9 24.1 0.00 0.00 0.00 75 1011.8
20260506154003 21 31 11.3 25.7 0.00 0.00 0.00 75 1011.8
20260506153504 21 33 14.5 27.4 0.00 0.00 0.00 74 1011.7
20260506153024 22 32 14.5 27.4 0.00 0.00 0.00 72 1011.6
20260506152504 22 35 9.7 25.7 0.00 0.00 0.00 71 1011.5
20260506152004 22 34 9.7 24.1 0.00 0.00 0.00 69 1011.6
20260506151504 22 29 11.3 24.1 0.00 0.00 0.00 69 1011.6
20260506151003 22 27 9.7 22.5 0.00 0.00 0.00 68 1011.6
20260506150503 22 33 8.0 20.9 0.00 0.00 0.00 68 1011.7
20260506150003 22 34 11.3 25.7 0.00 0.00 0.00 69 1011.7
20260506145503 22 32 11.3 25.7 0.00 0.00 0.00 68 1011.7
20260506145003 22 33 12.9 29.0 0.00 0.00 0.00 66 1011.7
20260506144503 22 32 16.1 29.0 0.00 0.00 0.00 66 1011.6
20260506144003 22 32 14.5 29.0 0.00 0.00 0.00 69 1011.6
20260506143503 23 34 12.9 29.0 0.00 0.00 0.00 68 1011.8
20260506143003 23 29 14.5 29.0 0.00 0.00 0.00 68 1011.5